| time (UTC) | temp F | wind direction | speed MPH | gust MPH | rain 1hr in | rain 24hr in | rain mn in | humidity % | barometer mb |
| 20260505000211 | 73 | 239 | 8.0 | 14.0 | 0.00 | 0.00 | 0.00 | 100 | 1009.4 |
| 20260504235710 | 74 | 251 | 9.0 | 14.0 | 0.00 | 0.00 | 0.00 | 100 | 1009.4 |
| 20260504235210 | 74 | 255 | 9.0 | 14.0 | 0.00 | 0.00 | 0.00 | 100 | 1009.4 |
| 20260504234208 | 75 | 247 | 6.0 | 13.0 | 0.00 | 0.00 | 0.00 | 100 | 1009.4 |
| 20260504233707 | 74 | 229 | 9.0 | 14.0 | 0.00 | 0.00 | 0.00 | 100 | 1009.4 |
| 20260504233208 | 74 | 243 | 2.0 | 14.0 | 0.00 | 0.00 | 0.00 | 100 | 1009.4 |
| 20260504232707 | 75 | 233 | 9.0 | 14.0 | 0.00 | 0.00 | 0.00 | 100 | 1009.4 |
| 20260504232206 | 74 | 236 | 1.0 | 10.0 | 0.00 | 0.00 | 0.00 | 100 | 1009.4 |
| 20260504231703 | 75 | 226 | 3.0 | 14.0 | 0.00 | 0.00 | 0.00 | 100 | 1009.4 |
| 20260504231424 | 74 | 247 | 4.0 | 14.0 | 0.00 | 0.00 | 0.00 | 100 | 1009.4 |
| 20260504230702 | 73 | 239 | 8.0 | 14.0 | 0.00 | 0.00 | 0.00 | 100 | 1009.4 |
| 20260504230201 | 73 | 261 | 4.0 | 12.0 | 0.00 | 0.00 | 0.00 | 100 | 1009.4 |
| 20260504225701 | 74 | 258 | 8.0 | 11.0 | 0.00 | 0.00 | 0.00 | 100 | 1009.4 |
| 20260504225200 | 73 | 180 | 4.0 | 11.0 | 0.00 | 0.00 | 0.00 | 100 | 1009.4 |
| 20260504224659 | 74 | 222 | 4.0 | 11.0 | 0.00 | 0.00 | 0.00 | 100 | 1009.4 |
| 20260504224159 | 75 | 220 | 4.0 | 10.0 | 0.00 | 0.00 | 0.00 | 100 | 1009.4 |
| 20260504223659 | 75 | 202 | 6.0 | 10.0 | 0.00 | 0.00 | 0.00 | 100 | 1009.4 |
| 20260504223158 | 74 | 267 | 6.0 | 10.0 | 0.00 | 0.00 | 0.00 | 100 | 1009.4 |
| 20260504222657 | 73 | 268 | 4.0 | 11.0 | 0.00 | 0.00 | 0.00 | 100 | 1009.4 |
| 20260504222414 | 73 | 147 | 0.0 | 11.0 | 0.00 | 0.00 | 0.00 | 100 | 1009.4 |
| 20260504221912 | 75 | 239 | 6.0 | 11.0 | 0.00 | 0.00 | 0.00 | 100 | 1009.4 |
| 20260504221152 | 76 | 241 | 9.0 | 11.0 | 0.00 | 0.00 | 0.00 | 100 | 1009.4 |
| 20260504220651 | 76 | 284 | 7.0 | 11.0 | 0.00 | 0.00 | 0.00 | 100 | 1009.4 |
| 20260504220150 | 75 | 251 | 4.0 | 15.0 | 0.00 | 0.00 | 0.00 | 100 | 1009.4 |
| 20260504215650 | 74 | 130 | 1.0 | 15.0 | 0.00 | 0.00 | 0.00 | 100 | 1009.4 |
| 20260504215147 | 75 | 293 | 11.0 | 15.0 | 0.00 | 0.00 | 0.00 | 100 | 1009.4 |
| 20260504214646 | 74 | 264 | 3.0 | 14.0 | 0.00 | 0.00 | 0.00 | 100 | 1009.4 |
| 20260504214146 | 74 | 248 | 8.0 | 15.0 | 0.00 | 0.00 | 0.00 | 100 | 1009.4 |
| 20260504213645 | 74 | 267 | 12.0 | 15.0 | 0.00 | 0.00 | 0.00 | 100 | 1009.4 |
| 20260504213144 | 74 | 279 | 9.0 | 14.0 | 0.00 | 0.00 | 0.00 | 100 | 1009.4 |
| 20260504212644 | 74 | 241 | 9.0 | 12.0 | 0.00 | 0.00 | 0.00 | 100 | 1009.4 |
| 20260504212143 | 75 | 270 | 6.0 | 12.0 | 0.00 | 0.00 | 0.00 | 100 | 1009.4 |
| 20260504211643 | 74 | 233 | 9.0 | 12.0 | 0.00 | 0.00 | 0.00 | 100 | 1009.4 |
| 20260504211142 | 74 | 248 | 2.0 | 13.0 | 0.00 | 0.00 | 0.00 | 100 | 1009.4 |
| 20260504210642 | 73 | 289 | 5.0 | 13.0 | 0.00 | 0.00 | 0.00 | 100 | 1009.4 |
| 20260504210141 | 74 | 250 | 7.0 | 13.0 | 0.00 | 0.00 | 0.00 | 100 | 1009.4 |
| 20260504205640 | 74 | 262 | 5.0 | 13.0 | 0.00 | 0.00 | 0.00 | 100 | 1009.4 |
| 20260504205139 | 73 | 241 | 4.0 | 12.0 | 0.00 | 0.00 | 0.00 | 100 | 1009.4 |
| 20260504204639 | 74 | 237 | 7.0 | 12.0 | 0.00 | 0.00 | 0.00 | 100 | 1009.4 |
| 20260504204138 | 74 | 279 | 9.0 | 13.0 | 0.00 | 0.00 | 0.00 | 100 | 1009.4 |
| 20260504203638 | 73 | 258 | 4.0 | 13.0 | 0.00 | 0.00 | 0.00 | 100 | 1009.4 |
| 20260504203137 | 74 | 270 | 7.0 | 13.0 | 0.00 | 0.00 | 0.00 | 100 | 1009.4 |
| 20260504202857 | 75 | 239 | 6.0 | 12.0 | 0.00 | 0.00 | 0.00 | 100 | 1009.4 |
| 20260504202137 | 74 | 236 | 7.0 | 13.0 | 0.00 | 0.00 | 0.00 | 100 | 1009.4 |
| 20260504201636 | 73 | 244 | 8.0 | 16.0 | 0.00 | 0.00 | 0.00 | 100 | 1009.4 |
| 20260504201135 | 72 | 251 | 8.0 | 16.0 | 0.00 | 0.00 | 0.00 | 100 | 1009.4 |
| 20260504200635 | 72 | 260 | 11.0 | 15.0 | 0.00 | 0.00 | 0.00 | 100 | 1009.4 |
| 20260504200134 | 72 | 270 | 8.0 | 13.0 | 0.00 | 0.00 | 0.00 | 100 | 1009.4 |
| 20260504195633 | 72 | 267 | 9.0 | 13.0 | 0.00 | 0.00 | 0.00 | 100 | 1009.4 |
| 20260504195133 | 72 | 298 | 9.0 | 13.0 | 0.00 | 0.00 | 0.00 | 100 | 1009.4 |
| 20260504194632 | 71 | 334 | 7.0 | 13.0 | 0.00 | 0.00 | 0.00 | 100 | 1009.4 |
| 20260504194131 | 72 | 261 | 2.0 | 11.0 | 0.00 | 0.00 | 0.00 | 100 | 1009.4 |
| 20260504193850 | 72 | 258 | 5.0 | 11.0 | 0.00 | 0.00 | 0.00 | 100 | 1009.4 |
| 20260504193130 | 72 | 254 | 7.0 | 10.0 | 0.00 | 0.00 | 0.00 | 100 | 1009.4 |
| 20260504192629 | 72 | 300 | 5.0 | 9.0 | 0.00 | 0.00 | 0.00 | 100 | 1009.4 |
| 20260504192129 | 72 | 254 | 5.0 | 12.0 | 0.00 | 0.00 | 0.00 | 100 | 1009.4 |
| 20260504191629 | 71 | 264 | 2.0 | 12.0 | 0.00 | 0.00 | 0.00 | 100 | 1009.4 |
| 20260504191128 | 72 | 226 | 6.0 | 13.0 | 0.00 | 0.00 | 0.00 | 100 | 1009.4 |
| 20260504190627 | 72 | 267 | 5.0 | 13.0 | 0.00 | 0.00 | 0.00 | 100 | 1009.4 |
| 20260504190126 | 71 | 265 | 3.0 | 13.0 | 0.00 | 0.00 | 0.00 | 100 | 1009.4 |
| 20260504185835 | 74 | 264 | 5.0 | 11.0 | 0.00 | 0.00 | 0.00 | 100 | 1009.4 |
| 20260504185115 | 72 | 267 | 5.0 | 13.0 | 0.00 | 0.00 | 0.00 | 100 | 1009.4 |
| 20260504184615 | 72 | 289 | 6.0 | 13.0 | 0.00 | 0.00 | 0.00 | 100 | 1009.4 |
| 20260504184114 | 71 | 331 | 9.0 | 13.0 | 0.00 | 0.00 | 0.00 | 100 | 1009.4 |
| 20260504183613 | 71 | 272 | 0.0 | 11.0 | 0.00 | 0.00 | 0.00 | 100 | 1009.4 |
| 20260504183101 | 71 | 243 | 9.0 | 13.0 | 0.00 | 0.00 | 0.00 | 100 | 1009.4 |
| 20260504182601 | 71 | 254 | 7.0 | 13.0 | 0.00 | 0.00 | 0.00 | 100 | 1009.4 |
| 20260504182320 | 71 | 253 | 9.0 | 12.0 | 0.00 | 0.00 | 0.00 | 100 | 1009.4 |
| 20260504181559 | 71 | 257 | 7.0 | 16.0 | 0.00 | 0.00 | 0.00 | 100 | 1009.4 |
| 20260504181323 | 70 | 293 | 7.0 | 16.0 | 0.00 | 0.00 | 0.00 | 100 | 1009.4 |
| 20260504180557 | 69 | 262 | 12.0 | 16.0 | 0.00 | 0.00 | 0.00 | 100 | 1009.4 |
| 20260504180057 | 70 | 253 | 11.0 | 15.0 | 0.00 | 0.00 | 0.00 | 100 | 1009.4 |
| 20260504175819 | 70 | 271 | 9.0 | 16.0 | 0.00 | 0.00 | 0.00 | 100 | 1009.4 |
| 20260504174555 | 70 | 258 | 9.0 | 14.0 | 0.00 | 0.00 | 0.00 | 100 | 1009.4 |
| 20260504174055 | 70 | 288 | 5.0 | 9.0 | 0.00 | 0.00 | 0.00 | 100 | 1009.4 |
| 20260504173554 | 69 | 246 | 2.0 | 10.0 | 0.00 | 0.00 | 0.00 | 100 | 1009.4 |
| 20260504173053 | 69 | 217 | 5.0 | 10.0 | 0.00 | 0.00 | 0.00 | 100 | 1009.4 |
| 20260504172552 | 69 | 213 | 4.0 | 10.0 | 0.00 | 0.00 | 0.00 | 100 | 1009.4 |
| 20260504172053 | 69 | 246 | 5.0 | 10.0 | 0.00 | 0.00 | 0.00 | 100 | 1009.4 |
| 20260504171552 | 69 | 236 | 7.0 | 12.0 | 0.00 | 0.00 | 0.00 | 100 | 1009.4 |
| 20260504171052 | 69 | 285 | 6.0 | 14.0 | 0.00 | 0.00 | 0.00 | 100 | 1009.4 |
| 20260504170551 | 68 | 265 | 7.0 | 16.0 | 0.00 | 0.00 | 0.00 | 100 | 1009.4 |
| 20260504160303 | 69 | 278 | 10.0 | 13.0 | 0.00 | 0.00 | 0.00 | 100 | 1009.4 |
| 20260504151035 | 70 | 258 | 7.0 | 13.0 | 0.00 | 0.00 | 0.00 | 100 | 1009.4 |
| 20260504150758 | 70 | 270 | 9.0 | 14.0 | 0.00 | 0.00 | 0.00 | 100 | 1009.4 |
| 20260504141027 | 70 | 257 | 4.0 | 8.0 | 0.00 | 0.00 | 0.00 | 100 | 1009.4 |
| 20260504140527 | 69 | 268 | 6.0 | 8.0 | 0.00 | 0.00 | 0.00 | 100 | 1009.4 |
| 20260504130459 | 65 | 289 | 1.0 | 2.0 | 0.00 | 0.00 | 0.00 | 100 | 1009.4 |
| 20260504130217 | 66 | 92 | 0.0 | 0.0 | 0.00 | 0.00 | 0.00 | 100 | 1009.4 |
| 20260504110602 | 67 | 92 | 1.0 | 3.0 | 0.00 | 0.00 | 0.00 | 100 | 1009.4 |
| 20260504100514 | 69 | 282 | 0.0 | 5.0 | 0.00 | 0.00 | 0.00 | 100 | 1009.4 |
| 20260504081928 | 73 | 268 | 11.0 | 15.0 | 0.00 | 0.00 | 0.00 | 100 | 1009.4 |
| 20260504081427 | 74 | 258 | 10.0 | 14.0 | 0.00 | 0.00 | 0.00 | 100 | 1009.4 |
| 20260504080705 | 74 | 250 | 11.0 | 14.0 | 0.00 | 0.00 | 0.00 | 100 | 1009.4 |
| 20260504080205 | 73 | 260 | 8.0 | 12.0 | 0.00 | 0.00 | 0.00 | 100 | 1009.4 |
| 20260504070158 | 75 | 265 | 11.0 | 15.0 | 0.00 | 0.00 | 0.00 | 100 | 1009.4 |
| 20260504050644 | 76 | 233 | 10.0 | 19.0 | 0.00 | 0.00 | 0.00 | 100 | 1009.4 |
| 20260504050144 | 76 | 226 | 9.0 | 19.0 | 0.00 | 0.00 | 0.00 | 100 | 1009.4 |
| 20260504045908 | 77 | 267 | 14.0 | 19.0 | 0.00 | 0.00 | 0.00 | 100 | 1009.4 |
| 20260504044641 | 77 | 247 | 12.0 | 24.0 | 0.00 | 0.00 | 0.00 | 100 | 1009.4 |
| 20260504044141 | 77 | 254 | 12.0 | 24.0 | 0.00 | 0.00 | 0.00 | 100 | 1009.4 |
| 20260504043640 | 78 | 257 | 14.0 | 24.0 | 0.00 | 0.00 | 0.00 | 100 | 1009.4 |
| 20260504043139 | 78 | 261 | 17.0 | 23.0 | 0.00 | 0.00 | 0.00 | 100 | 1009.4 |
| 20260504042639 | 78 | 233 | 13.0 | 22.0 | 0.00 | 0.00 | 0.00 | 100 | 1009.4 |
| 20260504041137 | 78 | 253 | 10.0 | 25.0 | 0.00 | 0.00 | 0.00 | 100 | 1009.4 |
| 20260504040637 | 78 | 258 | 10.0 | 25.0 | 0.00 | 0.00 | 0.00 | 100 | 1009.4 |
| 20260504040136 | 79 | 257 | 11.0 | 24.0 | 0.00 | 0.00 | 0.00 | 100 | 1009.4 |
| 20260504035635 | 79 | 247 | 14.0 | 21.0 | 0.00 | 0.00 | 0.00 | 100 | 1009.4 |
| 20260504035134 | 79 | 255 | 15.0 | 21.0 | 0.00 | 0.00 | 0.00 | 100 | 1009.4 |
| 20260504034853 | 79 | 243 | 12.0 | 22.0 | 0.00 | 0.00 | 0.00 | 100 | 1009.4 |
| 20260504034134 | 79 | 272 | 16.0 | 22.0 | 0.00 | 0.00 | 0.00 | 100 | 1009.4 |
| 20260504033634 | 80 | 247 | 13.0 | 22.0 | 0.00 | 0.00 | 0.00 | 100 | 1009.4 |
| 20260504033133 | 80 | 261 | 14.0 | 21.0 | 0.00 | 0.00 | 0.00 | 100 | 1009.4 |
| 20260504032632 | 80 | 258 | 12.0 | 22.0 | 0.00 | 0.00 | 0.00 | 100 | 1009.4 |
| 20260504032131 | 80 | 262 | 11.0 | 23.0 | 0.00 | 0.00 | 0.00 | 100 | 1009.4 |
| 20260504031630 | 80 | 260 | 12.0 | 23.0 | 0.00 | 0.00 | 0.00 | 100 | 1009.4 |
| 20260504030630 | 80 | 241 | 14.0 | 21.0 | 0.00 | 0.00 | 0.00 | 100 | 1009.4 |
| 20260504030129 | 81 | 230 | 12.0 | 22.0 | 0.00 | 0.00 | 0.00 | 100 | 1009.4 |
| 20260504025629 | 81 | 258 | 14.0 | 26.0 | 0.00 | 0.00 | 0.00 | 100 | 1009.4 |
| 20260504025128 | 81 | 265 | 14.0 | 26.0 | 0.00 | 0.00 | 0.00 | 100 | 1009.4 |
| 20260504024628 | 81 | 257 | 17.0 | 25.0 | 0.00 | 0.00 | 0.00 | 100 | 1009.4 |
| 20260504024354 | 81 | 267 | 17.0 | 22.0 | 0.00 | 0.00 | 0.00 | 100 | 1009.4 |
| 20260504023626 | 81 | 243 | 17.0 | 25.0 | 0.00 | 0.00 | 0.00 | 100 | 1009.4 |
| 20260504023125 | 82 | 253 | 13.0 | 25.0 | 0.00 | 0.00 | 0.00 | 100 | 1009.4 |
| 20260504022625 | 83 | 247 | 17.0 | 25.0 | 0.00 | 0.00 | 0.00 | 100 | 1009.4 |
| 20260504022125 | 82 | 234 | 18.0 | 27.0 | 0.00 | 0.00 | 0.00 | 100 | 1009.4 |
| 20260504021624 | 82 | 254 | 14.0 | 27.0 | 0.00 | 0.00 | 0.00 | 100 | 1009.4 |
| 20260504021123 | 83 | 243 | 19.0 | 27.0 | 0.00 | 0.00 | 0.00 | 100 | 1009.4 |
| 20260504020623 | 83 | 262 | 17.0 | 30.0 | 0.00 | 0.00 | 0.00 | 100 | 1009.4 |
| 20260504020341 | 83 | 244 | 19.0 | 30.0 | 0.00 | 0.00 | 0.00 | 100 | 1009.4 |
| 20260504015622 | 83 | 240 | 18.0 | 29.0 | 0.00 | 0.00 | 0.00 | 100 | 1009.4 |
| 20260504015121 | 84 | 251 | 16.0 | 26.0 | 0.00 | 0.00 | 0.00 | 100 | 1009.4 |
| 20260504014620 | 83 | 251 | 17.0 | 27.0 | 0.00 | 0.00 | 0.00 | 100 | 1009.4 |
| 20260504014338 | 83 | 239 | 15.0 | 27.0 | 0.00 | 0.00 | 0.00 | 100 | 1009.4 |
| 20260504013619 | 84 | 265 | 18.0 | 26.0 | 0.00 | 0.00 | 0.00 | 100 | 1009.4 |
| 20260504013118 | 85 | 244 | 17.0 | 30.0 | 0.00 | 0.00 | 0.00 | 100 | 1009.4 |
| 20260504012618 | 85 | 248 | 16.0 | 30.0 | 0.00 | 0.00 | 0.00 | 100 | 1009.4 |
| 20260504012118 | 85 | 246 | 18.0 | 29.0 | 0.00 | 0.00 | 0.00 | 100 | 1009.4 |
| 20260504011617 | 85 | 255 | 13.0 | 26.0 | 0.00 | 0.00 | 0.00 | 100 | 1009.4 |
| 20260504010616 | 86 | 254 | 18.0 | 32.0 | 0.00 | 0.00 | 0.00 | 100 | 1009.4 |
| 20260504010115 | 87 | 254 | 18.0 | 32.0 | 0.00 | 0.00 | 0.00 | 100 | 1009.4 |
| 20260504005615 | 87 | 243 | 21.0 | 29.0 | 0.00 | 0.00 | 0.00 | 100 | 1009.4 |
| 20260504005114 | 87 | 264 | 20.0 | 29.0 | 0.00 | 0.00 | 0.00 | 100 | 1009.4 |
| 20260504004613 | 88 | 233 | 17.0 | 29.0 | 0.00 | 0.00 | 0.00 | 100 | 1009.4 |
| 20260504004113 | 88 | 257 | 15.0 | 29.0 | 0.00 | 0.00 | 0.00 | 100 | 1009.4 |
| 20260504003612 | 88 | 246 | 20.0 | 27.0 | 0.00 | 0.00 | 0.00 | 100 | 1009.4 |
| 20260504003331 | 89 | 243 | 16.0 | 24.0 | 0.00 | 0.00 | 0.00 | 100 | 1009.4 |
| 20260504002611 | 89 | 227 | 14.0 | 23.0 | 0.00 | 0.00 | 0.00 | 100 | 1009.4 |
| 20260504001611 | 89 | 250 | 15.0 | 21.0 | 0.00 | 0.00 | 0.00 | 100 | 1009.4 |
| 20260504001110 | 90 | 268 | 14.0 | 21.0 | 0.00 | 0.00 | 0.00 | 100 | 1009.4 |
| 20260504000609 | 90 | 268 | 16.0 | 21.0 | 0.00 | 0.00 | 0.00 | 100 | 1009.4 |